Location: ?p Thanh B�nh
(16.5833°N, 107.5333°E)
Time: 14:14:41
(UTC+00:00)

Daily predictions for brighter satellites

Satellite Brightness Start Highest point End
(mag) Time Altitude Azimuth Time Altitude Azimuth Time Altitude Azimuth
Cosmos 1408 4.2 12:06:32 10° NNW 12:09:53 34° W 12:13:15 10° SSW
EO 1 Delta rocket 4.1 12:08:13 31° N 12:10:19 66° W 12:15:19 10° SSW
OAO 3 Rocket 4.3 12:06:44 10° NW 12:09:43 34° NNW 12:09:43 34° NNW
Cosmos-2242 4.3 12:12:51 10° SSW 12:16:47 38° W 12:18:11 29° NW
YAOGAN 1 3.9 12:16:28 10° S 12:20:28 38° W 12:24:30 10° NNW
Atlas Centaur 2 4.0 12:14:05 10° NW 12:21:25 31° N 12:22:18 31° NNE
CZ-2C R/B 4.4 12:25:03 10° S 12:30:29 42° W 12:35:55 10° NNW
CZ-4 R/B 4.0 12:29:46 10° SW 12:32:30 18° W 12:35:14 10° NW
Ariane H10-3 4.5 12:28:17 10° WSW 12:36:56 23° SSW 12:37:31 22° SSW
Cosmos 2297 Rocket 4.4 12:38:53 10° NW 12:43:12 23° WSW 12:47:30 10° SSW
H-2A R/B 3.8 12:41:34 10° WNW 12:45:53 69° SSW 13:17:46 10° ESE
H-2A R/B 4.0 12:47:38 10° SSW 12:54:38 25° WNW 12:57:18 10° NW
Cosmos 2322 Rocket 3.9 12:52:58 10° SW 12:55:46 28° SW 12:55:46 28° SW
ATLAS CENTAUR R/B 3.3 20:39:56 27° ESE 20:40:03 27° ESE 20:43:28 10° NE
Sylda 5 3.9 20:41:21 29° S 20:41:25 29° S 20:48:21 10° ESE
ALOS 3.8 20:41:41 10° NE 20:45:55 34° E 20:50:08 10° SSE
Nadezhda 4 Rocket 3.9 20:40:32 10° S 20:47:36 66° N 20:52:46 10° N
Meteor 1-16 Rocket 3.9 20:55:38 81° NNW 20:55:54 88° W 21:01:22 10° S
X-37B 3.2 20:57:52 20° ESE 20:57:52 20° ESE 20:59:58 10° E
Delta 128 3.6 21:02:04 72° ENE 21:02:04 72° ENE 21:06:16 10° ESE
GPS 2-18 Rocket1 3.9 21:06:11 44° ENE 21:06:11 44° ENE 21:08:51 10° ENE
Cosmos 1697 Rocket 4.1 21:03:50 10° N 21:09:00 36° ENE 21:14:08 10° SE
Cosmos 2180 Rocket 4.3 21:05:08 18° NNW 21:09:44 67° W 21:15:48 10° S
Cosmos 2228 4.4 21:09:14 10° NNE 21:13:20 39° E 21:17:26 10° SSE
FENGYUN 3A 3.6 21:10:31 10° NNE 21:15:58 89° E 21:21:23 10° SSW
Meteor 2-5 Rocket 3.9 21:12:32 10° SSW 21:17:53 47° W 21:23:23 10° N
ADEOS 3.4 21:13:30 10° N 21:18:43 78° WNW 21:23:55 10° SSW
Sakura Rocket 4.5 21:15:00 28° WSW 21:20:29 90° NNW 21:27:25 10° ENE
CZ-4B R/B 3.9 21:20:38 10° SE 21:23:27 24° ENE 21:26:17 10° NNE
Cosmos 1484 Rocket 2.5 21:20:37 10° N 21:24:20 68° WNW 21:28:01 10° SSW
H-2A R/B 2.0 21:21:54 10° S 21:26:22 65° WSW 21:29:07 22° NNW
Landsat 5 3.6 21:24:42 10° S 21:28:35 45° WSW 21:28:35 45° WSW
GPS 2-15 Rocket1 3.3 21:27:42 34° WSW 21:29:46 73° SSE 21:34:42 10° E
Cosmos 1428 Rocket 4.5 21:23:33 10° S 21:29:50 89° ENE 21:36:02 10° N
ERS-2 3.2 21:27:41 10° SSE 21:31:09 44° ENE 21:34:36 10° N
Cosmos 1606 Rocket 3.9 21:26:57 10° N 21:31:22 66° E 21:35:47 10° SSE
Cosmos 614 Rocket 4.0 21:26:30 10° SSW 21:31:32 52° WNW 21:36:32 10° N
Cosmos 1980 Rocket 4.2 21:27:50 10° NNE 21:32:34 28° ENE 21:37:17 10° SE
ADEOS Rocket 2.8 21:33:34 10° S 21:39:01 52° WSW 21:44:20 10° NNW
Intercosmos 24 3.8 21:36:10 10° N 21:39:47 89° WSW 21:44:20 10° S
Cosmos 2026 Rocket 4.0 21:36:55 10° SSW 21:43:10 64° W 21:49:29 10° N
SJ-12 3.9 21:39:27 10° NNE 21:43:31 86° E 21:47:35 10° S
SL-19 R/B 4.0 21:44:58 10° N 21:47:51 44° WNW 21:51:05 10° SSW
Meteor 1-31 Rocket 3.1 21:46:02 10° N 21:49:43 41° WNW 21:53:23 10° SSW
GPS 2-17 Rocket1 3.5 21:47:45 23° W 21:50:16 48° SSW 21:54:42 10° ESE
CZ-3A R/B 1.5 21:50:58 14° NE 21:50:58 14° NE 21:51:34 10° ENE
Palapa 6 Rocket 3.7 21:51:00 20° NW 21:52:54 32° N 21:56:36 10° ENE
CZ-2C R/B 1.9 21:52:19 22° WSW 21:53:20 26° SW 21:56:06 10° SSE
SL-27 R/B 2.3 21:51:50 10° SSW 21:55:22 83° WNW 21:58:57 10° N
Cosmos 1023 Rocket 4.4 21:50:33 10° SSW 21:55:35 61° WNW 22:00:35 10° N
Cosmos 2360 4.3 21:50:53 10° NNW 21:56:34 85° ENE 22:02:14 10° SSE
deb Chang Zheng 4 4.3 21:53:06 10° NNW 21:56:46 28° WNW 22:00:26 10° SW
Okean 1-7 Rocket 4.0 21:53:47 10° SSW 21:58:02 40° W 22:02:17 10° NNW
Cosmos 2278 4.1 22:00:57 10° N 22:06:33 69° ENE 22:12:09 10° SSE
Cosmos 44 Rocket 4.2 22:03:20 10° NW 22:07:52 31° WSW 22:12:23 10° S
Cosmos 1190 Rocket 4.3 22:04:15 10° SSW 22:09:15 45° WNW 22:14:16 10° N
Cosmos 2058 Rocket 3.1 22:05:16 10° N 22:09:43 90° NE 22:14:07 10° S
CZ-4B R/B 3.4 22:09:26 10° N 22:13:29 42° WNW 22:17:40 10° SSW
SKYMED 2 4.0 22:12:25 10° SSE 22:16:43 66° ENE 22:21:00 10° N
ATLAS CENTAUR R/B 3.1 22:16:56 10° W 22:18:46 13° WNW 22:20:34 10° NW
Cosmos 1626 Rocket 3.9 22:18:06 10° SSW 22:22:21 46° W 22:26:38 10° N
Geosat 4.1 22:17:36 10° SSE 22:22:37 83° ENE 22:27:37 10° NNW
ALOS 3.9 22:20:54 10° NW 22:22:57 13° WNW 22:24:59 10° W
Cosmos 2292 Rocket 2.5 22:20:45 10° SSW 22:23:38 64° W 22:26:42 10° N
Cosmos 2098 Rocket 4.0 22:16:57 10° SSW 22:23:43 61° W 22:29:19 10° N
Cosmos 1602 Rocket 3.6 22:21:49 10° SSW 22:26:09 60° W 22:30:31 10° N
